| time (UTC) | temp F | wind direction | speed knots | gust knots | rain 1hr in | rain 24hr in | rain mn in | humidity % | barometer mb |
| 20260902091528 | 69 | 232 | 1.7 | 5.2 | 0.00 | 0.10 | 0.00 | 65 | 1002.2 |
| 20260902090029 | 70 | 201 | 4.3 | 7.0 | 0.00 | 0.10 | 0.00 | 63 | 1002.3 |
| 20260902084526 | 70 | 215 | 4.3 | 8.7 | 0.00 | 0.10 | 0.00 | 62 | 1002.4 |
| 20260902083025 | 70 | 220 | 0.0 | 4.3 | 0.00 | 0.10 | 0.00 | 63 | 1002.5 |
| 20260902081525 | 70 | 240 | 6.1 | 13.0 | 0.00 | 0.10 | 0.00 | 62 | 1002.5 |
| 20260902080024 | 69 | 244 | 1.7 | 11.3 | 0.00 | 0.10 | 0.00 | 65 | 1002.6 |
| 20260902074525 | 70 | 237 | 5.2 | 10.4 | 0.00 | 0.10 | 0.00 | 63 | 1002.6 |
| 20260902073021 | 68 | 232 | 0.0 | 0.0 | 0.00 | 0.10 | 0.00 | 67 | 1002.5 |
| 20260902071520 | 69 | 216 | 2.6 | 8.7 | 0.00 | 0.10 | 0.00 | 64 | 1002.6 |
| 20260902070021 | 69 | 206 | 6.1 | 10.4 | 0.00 | 0.10 | 0.00 | 63 | 1002.6 |
| 20260902064549 | 70 | 226 | 0.9 | 8.7 | 0.00 | 0.10 | 0.00 | 62 | 1002.7 |
| 20260902063048 | 69 | 231 | 3.5 | 7.8 | 0.00 | 0.10 | 0.00 | 62 | 1002.6 |
| 20260902061537 | 69 | 212 | 3.5 | 7.8 | 0.00 | 0.10 | 0.00 | 61 | 1002.5 |
| 20260902060023 | 70 | 229 | 3.5 | 9.6 | 0.00 | 0.10 | 0.00 | 60 | 1002.4 |
| 20260902054517 | 70 | 228 | 1.7 | 7.8 | 0.00 | 0.10 | 0.00 | 59 | 1002.5 |
| 20260902053014 | 71 | 195 | 7.0 | 11.3 | 0.00 | 0.10 | 0.00 | 56 | 1002.4 |
| 20260902051513 | 72 | 214 | 8.7 | 13.9 | 0.00 | 0.10 | 0.00 | 56 | 1002.5 |
| 20260902050013 | 70 | 196 | 7.8 | 13.9 | 0.00 | 0.10 | 0.00 | 60 | 1002.4 |
| 20260902044513 | 70 | 213 | 6.1 | 10.4 | 0.00 | 0.10 | 0.00 | 65 | 1002.3 |
| 20260902043009 | 71 | 230 | 2.6 | 10.4 | 0.00 | 0.10 | 0.00 | 64 | 1002.4 |
| 20260902041509 | 71 | 218 | 8.7 | 13.9 | 0.00 | 0.10 | 0.00 | 61 | 1002.5 |
| 20260902040009 | 72 | 235 | 5.2 | 10.4 | 0.00 | 0.10 | 0.00 | 60 | 1002.2 |
| 20260902034508 | 72 | 189 | 4.3 | 7.8 | 0.00 | 0.10 | 0.00 | 61 | 1001.8 |
| 20260902033006 | 72 | 201 | 3.5 | 9.6 | 0.00 | 0.10 | 0.00 | 60 | 1001.8 |
| 20260902031507 | 73 | 167 | 3.5 | 7.8 | 0.00 | 0.10 | 0.00 | 60 | 1001.5 |
| 20260902030005 | 73 | 165 | 3.5 | 8.7 | 0.00 | 0.10 | 0.00 | 60 | 1001.4 |
| 20260902024505 | 74 | 214 | 4.3 | 9.6 | 0.00 | 0.10 | 0.00 | 58 | 1001.1 |
| 20260902023003 | 74 | 147 | 2.6 | 8.7 | 0.00 | 0.10 | 0.00 | 55 | 1000.9 |
| 20260902021502 | 74 | 223 | 2.6 | 6.1 | 0.00 | 0.10 | 0.00 | 56 | 1000.9 |
| 20260902020001 | 75 | 177 | 0.0 | 2.6 | 0.00 | 0.10 | 0.00 | 53 | 1001.0 |
| 20260902014601 | 76 | 143 | 0.0 | 0.9 | 0.00 | 0.10 | 0.00 | 54 | 1001.0 |
| 20260902014504 | 76 | 181 | 0.0 | 0.9 | 0.00 | 0.10 | 0.00 | 55 | 1001.0 |
| 20260902013058 | 77 | 141 | 0.0 | 1.7 | 0.00 | 0.10 | 0.00 | 51 | 1001.2 |
| 20260902011555 | 77 | 143 | 0.0 | 0.9 | 0.00 | 0.10 | 0.00 | 52 | 1001.3 |
| 20260902010051 | 75 | 116 | 0.0 | 0.9 | 0.00 | 0.10 | 0.00 | 61 | 1001.3 |
| 20260902004551 | 74 | 51 | 0.0 | 0.9 | 0.00 | 0.10 | 0.00 | 62 | 1001.6 |
| 20260902003047 | 74 | 316 | 0.0 | 0.9 | 0.00 | 0.10 | 0.00 | 65 | 1001.8 |
| 20260902001559 | 74 | 189 | 0.0 | 3.5 | 0.00 | 0.10 | 0.00 | 64 | 1001.8 |
| 20260902000044 | 73 | 143 | 1.7 | 5.2 | 0.00 | 0.10 | 0.00 | 64 | 1001.8 |
| 20260901234538 | 70 | 142 | 2.6 | 7.0 | 0.00 | 0.10 | 0.00 | 73 | 1001.8 |
| 20260901233006 | 69 | 160 | 3.5 | 10.4 | 0.01 | 0.10 | 0.00 | 76 | 1002.2 |
| 20260901231501 | 67 | 134 | 5.2 | 7.8 | 0.09 | 0.10 | 0.00 | 82 | 1002.8 |
| 20260901230056 | 66 | 121 | 0.9 | 5.2 | 0.09 | 0.10 | 0.00 | 87 | 1002.8 |
| 20260901224552 | 64 | 328 | 0.0 | 0.9 | 0.09 | 0.10 | 0.10 | 87 | 1002.4 |
| 20260901223053 | 65 | 131 | 1.7 | 32.2 | 0.09 | 0.10 | 0.10 | 82 | 1003.7 |
| 20260901221559 | 78 | 299 | 0.0 | 3.5 | 0.01 | 0.01 | 0.01 | 48 | 1002.1 |
| 20260901220021 | 78 | 322 | 0.0 | 3.5 | 0.01 | 0.01 | 0.01 | 50 | 1001.8 |
| 20260901214521 | 77 | 13 | 2.6 | 7.8 | 0.01 | 0.01 | 0.01 | 54 | 1001.8 |
| 20260901213018 | 79 | 64 | 0.0 | 16.5 | 0.01 | 0.01 | 0.01 | 49 | 1002.1 |
| 20260901211516 | 81 | 53 | 2.6 | 7.0 | 0.00 | 0.00 | 0.00 | 46 | 1002.1 |
| 20260901210014 | 81 | 352 | 0.9 | 7.8 | 0.00 | 0.00 | 0.00 | 45 | 1001.9 |
| 20260901204513 | 82 | 49 | 4.3 | 9.6 | 0.00 | 0.03 | 0.00 | 46 | 1002.2 |
| 20260901203040 | 81 | 18 | 0.9 | 7.8 | 0.00 | 0.03 | 0.00 | 47 | 1002.7 |
| 20260901201539 | 80 | 30 | 0.9 | 7.0 | 0.00 | 0.03 | 0.00 | 50 | 1003.0 |
| 20260901200039 | 79 | 348 | 0.0 | 2.6 | 0.00 | 0.03 | 0.00 | 51 | 1003.5 |
| 20260901194534 | 78 | 77 | 0.9 | 6.1 | 0.00 | 0.03 | 0.00 | 53 | 1003.6 |
| 20260901193032 | 78 | 51 | 0.0 | 5.2 | 0.00 | 0.03 | 0.00 | 54 | 1004.0 |
| 20260901191550 | 78 | 38 | 0.0 | 7.0 | 0.00 | 0.03 | 0.00 | 56 | 1004.2 |
| 20260901190025 | 77 | 49 | 0.0 | 4.3 | 0.00 | 0.03 | 0.00 | 56 | 1004.6 |
| 20260901184524 | 76 | 79 | 0.0 | 7.0 | 0.00 | 0.03 | 0.00 | 58 | 1004.6 |
| 20260901183023 | 76 | 15 | 1.7 | 4.3 | 0.00 | 0.03 | 0.00 | 59 | 1004.8 |
| 20260901181524 | 75 | 19 | 2.6 | 6.1 | 0.00 | 0.03 | 0.00 | 60 | 1005.1 |
| 20260901180053 | 75 | 50 | 0.9 | 3.5 | 0.00 | 0.03 | 0.00 | 61 | 1005.0 |
| 20260901174553 | 74 | 95 | 0.0 | 6.1 | 0.00 | 0.03 | 0.00 | 61 | 1005.0 |
| 20260901173059 | 74 | 49 | 0.0 | 1.7 | 0.00 | 0.03 | 0.00 | 61 | 1005.3 |
| 20260901171600 | 73 | 67 | 0.9 | 6.1 | 0.00 | 0.03 | 0.00 | 63 | 1005.6 |
| 20260901170049 | 72 | 47 | 0.0 | 0.9 | 0.00 | 0.03 | 0.00 | 66 | 1005.6 |
| 20260901164549 | 70 | 68 | 0.0 | 6.1 | 0.00 | 0.03 | 0.00 | 69 | 1005.4 |
| 20260901163046 | 70 | 41 | 0.0 | 3.5 | 0.00 | 0.03 | 0.00 | 67 | 1005.4 |
| 20260901161602 | 70 | 323 | 0.9 | 5.2 | 0.00 | 0.03 | 0.00 | 68 | 1005.4 |
| 20260901160045 | 72 | 11 | 0.0 | 0.0 | 0.00 | 0.03 | 0.00 | 65 | 1005.4 |
| 20260901154554 | 71 | 285 | 0.0 | 0.0 | 0.00 | 0.03 | 0.00 | 66 | 1005.4 |
| 20260901153051 | 70 | 16 | 0.0 | 0.0 | 0.00 | 0.03 | 0.00 | 67 | 1005.6 |
| 20260901151542 | 70 | 343 | 0.0 | 0.0 | 0.00 | 0.03 | 0.00 | 68 | 1005.7 |
| 20260901150042 | 68 | 283 | 0.0 | 1.7 | 0.00 | 0.03 | 0.00 | 70 | 1005.8 |
| 20260901144546 | 67 | 53 | 0.0 | 1.7 | 0.00 | 0.03 | 0.00 | 72 | 1005.8 |
| 20260901143046 | 67 | 290 | 0.0 | 0.9 | 0.00 | 0.03 | 0.00 | 73 | 1005.8 |
| 20260901141546 | 66 | 292 | 0.0 | 1.7 | 0.00 | 0.03 | 0.00 | 75 | 1005.7 |
| 20260901140035 | 65 | 265 | 0.0 | 0.0 | 0.00 | 0.03 | 0.00 | 77 | 1005.5 |
| 20260901134534 | 67 | 85 | 0.0 | 0.0 | 0.00 | 0.04 | 0.00 | 73 | 1005.5 |
| 20260901133034 | 65 | 85 | 0.0 | 0.0 | 0.00 | 0.04 | 0.00 | 79 | 1005.3 |
| 20260901131529 | 62 | 85 | 0.0 | 0.0 | 0.00 | 0.04 | 0.00 | 83 | 1005.1 |
| 20260901130029 | 62 | 84 | 0.0 | 0.0 | 0.00 | 0.04 | 0.00 | 83 | 1004.9 |
| 20260901124528 | 62 | 84 | 0.0 | 0.0 | 0.00 | 0.11 | 0.00 | 82 | 1004.7 |
| 20260901123027 | 61 | 86 | 0.0 | 0.0 | 0.00 | 0.11 | 0.00 | 83 | 1004.6 |
| 20260901121524 | 62 | 86 | 0.0 | 0.0 | 0.00 | 0.11 | 0.00 | 84 | 1004.5 |
| 20260901120023 | 62 | 86 | 0.0 | 0.0 | 0.00 | 0.11 | 0.00 | 84 | 1004.2 |
| 20260901114522 | 62 | 85 | 0.0 | 0.0 | 0.00 | 0.11 | 0.00 | 84 | 1004.3 |
| 20260901113023 | 62 | 56 | 0.0 | 0.0 | 0.00 | 0.11 | 0.00 | 82 | 1004.3 |
| 20260901111519 | 62 | 56 | 0.0 | 0.0 | 0.00 | 0.11 | 0.00 | 82 | 1004.2 |
| 20260901110018 | 62 | 56 | 0.0 | 0.0 | 0.00 | 0.11 | 0.00 | 81 | 1004.5 |
| 20260901104517 | 63 | 56 | 0.0 | 0.0 | 0.00 | 0.11 | 0.00 | 81 | 1004.5 |
| 20260901103014 | 63 | 56 | 0.0 | 0.0 | 0.00 | 0.11 | 0.00 | 82 | 1004.7 |
| 20260901101543 | 64 | 10 | 0.0 | 0.0 | 0.00 | 0.11 | 0.00 | 80 | 1004.7 |
| 20260901100042 | 64 | 154 | 0.0 | 0.0 | 0.00 | 0.11 | 0.00 | 79 | 1004.6 |
| 20260901094510 | 64 | 154 | 0.0 | 0.0 | 0.00 | 0.11 | 0.00 | 79 | 1004.6 |